Volver al catálogo

METEOR 2-8 DEB

ActivoPO
NORAD 36324·DEBRIS·🇷🇺 Russia

Lanzado Mar 25, 1982 desde Plesetsk Cosmodrome

Loading…

Próximos Pases (próximas 24 horas)

TLE

EnvejeciendoSource: Space-Track

Época: Sep 10, 2026, 12:43 UTC

1 36324U 82025J   26253.53015602  .00001764  00000-0  88062-3 0  9990
2 36324  82.5303 184.7642 0011496 300.7666  59.2380 14.16346730119410

Sigue METEOR 2-8 DEB en tiempo real con AllMySat

Download on the App Store